Weather History for Moab, UT

Change the Weather History Date:

Saturday, April 6, 2013

  Actual Average Record
Temperature  
Mean Temperature 55 °F 50 °F  
Max Temperature 70 °F 64 °F 85 °F (1930)
Min Temperature 40 °F 35 °F 22 °F (1936)
Degree Days  
Heating Degree Days 10 15  
Month to date heating degree days 63 94  
Since 1 July heating degree days 5571 5142  
Cooling Degree Days 0 0  
Month to date cooling degree days 0 0  
Year to date cooling degree days 0 0  
Growing Degree Days 4 (Base 50)    
Moisture  
Dew Point 23 °F    
Average Humidity 32    
Maximum Humidity 51    
Minimum Humidity 13    
Precipitation  
Precipitation 0.00 in 0.02 in 0.28 in (1953)
Month to date precipitation T 0.12  
Year to date precipitation 0.69 2.05  
Sea Level Pressure  
Sea Level Pressure 29.86 in    
Wind  
Wind Speed 5 mph (WNW)    
Max Wind Speed 24 mph    
Max Gust Speed 29 mph    
Visibility 10 miles    
Events      
T = Trace of Precipitation, MM = Missing Value Source: NWS Daily Summary

Daily Weather History Graph

Daily Weather History Graph

Search for Another Location

Airport:

Trip Planner

Search our weather history database for the weather conditions in past years. The results will help you decide how hot, cold, wet, or windy it might be!

Date:

Astronomy

Apr. 06, 2013 Rise Set
Actual Time 6:55 AM MDT 7:47 PM MDT
Civil Twilight 6:28 AM MDT 8:14 PM MDT
Nautical Twilight 5:56 AM MDT 8:46 PM MDT
Astronomical Twilight 5:23 AM MDT 9:20 PM MDT
Moon 4:39 AM MDT (4/6) 4:21 PM MDT (4/6)
Length of Visible Light 13h 46m
Length of Day
12h 52m
Waning Crescent, 14% of the Moon is Illuminated
Apr 6
Waning Crescent
Apr 10
New
Apr 18
First Quarter
Apr 25
Full
May 2
Last Quarter

Hourly Weather History & Observations

Time (MDT) Temp. Windchill Dew Point Humidity Pressure Visibility Wind Dir Wind Speed Gust Speed Precip Events Conditions
12:53 AM 46.0 °F - 23.0 °F 40% 29.86 in 10.0 mi Calm Calm - N/A   Clear
1:53 AM 46.9 °F - 24.1 °F 41% 29.85 in 10.0 mi West 4.6 mph - N/A   Clear
2:53 AM 45.0 °F 42.6 °F 23.0 °F 42% 29.86 in 10.0 mi NW 4.6 mph - N/A   Clear
3:53 AM 44.1 °F - 21.9 °F 42% 29.88 in 10.0 mi Calm Calm - N/A   Clear
4:53 AM 46.0 °F 44.8 °F 24.1 °F 42% 29.88 in 10.0 mi West 3.5 mph - N/A   Clear
5:53 AM 43.0 °F - 23.0 °F 45% 29.89 in 10.0 mi Calm Calm - N/A   Clear
6:53 AM 41.0 °F - 24.1 °F 51% 29.92 in 10.0 mi Calm Calm - N/A   Clear
7:53 AM 43.0 °F - 24.1 °F 47% 29.94 in 10.0 mi Calm Calm - N/A   Clear
8:53 AM 50.0 °F - 25.0 °F 38% 29.93 in 10.0 mi Calm Calm - N/A   Clear
9:53 AM 55.9 °F - 25.0 °F 30% 29.92 in 10.0 mi Calm Calm - N/A   Clear
10:53 AM 59.0 °F - 25.0 °F 27% 29.93 in 10.0 mi SE 6.9 mph - N/A   Clear
11:53 AM 62.1 °F - 24.1 °F 23% 29.92 in 10.0 mi Variable 3.5 mph - N/A   Clear
12:53 PM 66.0 °F - 23.0 °F 20% 29.88 in 10.0 mi SSW 6.9 mph - N/A   Clear
1:53 PM 66.0 °F - 18.0 °F 16% 29.84 in 10.0 mi Calm Calm - N/A   Clear
2:53 PM 66.9 °F - 16.0 °F 14% 29.81 in 10.0 mi South 9.2 mph - N/A   Clear
3:53 PM 68.0 °F - 16.0 °F 14% 29.78 in 10.0 mi Variable 4.6 mph - N/A   Mostly Cloudy
4:53 PM 66.9 °F - 19.9 °F 17% 29.75 in 10.0 mi NNW 20.7 mph 27.6 mph N/A   Mostly Cloudy
5:53 PM 66.0 °F - 23.0 °F 20% 29.78 in 10.0 mi WNW 15.0 mph 23.0 mph N/A   Overcast
6:53 PM 64.9 °F - 24.1 °F 21% 29.79 in 10.0 mi NW 13.8 mph - N/A   Mostly Cloudy
7:53 PM 61.0 °F - 27.0 °F 27% 29.81 in 10.0 mi NW 4.6 mph - N/A   Overcast
8:53 PM 55.9 °F - 27.0 °F 33% 29.83 in 10.0 mi WNW 4.6 mph - N/A   Mostly Cloudy
9:53 PM 52.0 °F - 25.0 °F 35% 29.83 in 10.0 mi Calm Calm - N/A   Overcast
10:53 PM 52.0 °F - 26.1 °F 37% 29.83 in 10.0 mi NNE 5.8 mph - N/A   Scattered Clouds
11:53 PM 54.0 °F - 32.0 °F 43% 29.82 in 10.0 mi Calm Calm - N/A   Clear